sat.trackr.live / text

‹ back to catalog

STARLINK-6346

NORAD 57243 · 2023-094AB

PAYLOAD ACTIVE UNKNOWN

§ Identity

Operator
Country
US
Launch date
2023-07-07
Launch site
AFWTR
Launch vehicle
Mass (kg)
RCS (m²)

Purposes: comms

External: N2YO · Heavens-Above · Gunter

§ Orbital elements

Epoch: 2026-09-20T07:33:50.457312Z

Period
94.27 min
Inclination
43.0042°
Eccentricity
0.0001060
Mean motion
15.27573130 rev/d
Perigee alt
482.3 km
Apogee alt
483.8 km
Semi-major
6,861.2 km
B*
-1.4259e-5
RAAN
0.9053°
Arg perigee
272.0463°
Mean anomaly
88.0267°
Rev number
17,700

§ Raw data

STARLINK-63461 57243U 23094AB  26263.31516733 -.00000654  00000+0 -14259-4 0  99982 57243  43.0042   0.9053 0001060 272.0463  88.0267 15.27573130177004

JSON: /api/v1/satellites/57243 · /tle

For live sub-satellite position, see the globe view (requires WebGL).

§ Visibility from observer

Set your observer location to see the next 7 days of passes ≥ 10°. The values pass through the URL so the page stays shareable.

No JS? Fill the form by hand. The geolocation button needs JavaScript.